Wind_Speed
4 4 5 9 11 13 15 11 11 12 15 17 17 16 12 13 12 12 15 15 16 14 12 11 11 10 12 12 13 12 12 13 8 8 11 6 8 11 34 32 31 28 27 28
6 5 5 8 10 11 13 15 11 11 14 19 20 11 11 13 12 14 15 16 16 14 11 13 14 14 12 12 13 12 10 15 11 13 14 16 12 16 22 35 32 31 31 30
5 5 6 6 8 9 9 15 14 11 14 14 21 5 9 16 16 16 16 15 15 13 12 13 12 13 13 12 14 14 9 14 15 11 13 14 14 19 17 30 37 36 33 33
5 6 7 6 7 9 7 14 15 10 13 6 15 8 6 15 20 19 17 16 14 13 12 11 12 13 12 15 15 14 12 13 16 17 16 18 14 13 18 25 25 40 38 37
6 7 8 8 7 8 8 13 16 9 10 9 7 6 4 15 20 18 16 14 13 12 12 13 15 15 15 16 16 15 12 14 16 17 21 19 14 14 11 20 21 19 24 29
5 9 9 8 7 6 9 12 8 7 7 3 4 7 4 16 20 16 17 16 16 15 14 14 15 16 17 19 17 14 9 12 15 16 20 18 19 19 13 11 23 27 23 28
7 7 8 9 8 5 9 8 4 4 3 3 6 8 9 14 17 17 16 16 16 15 14 16 17 18 21 18 15 11 6 6 11 15 18 18 20 22 18 16 17 24 25 22
3 3 4 7 8 5 5 7 4 4 2 6 6 4 11 13 16 15 16 16 15 14 16 18 19 19 21 19 19 17 11 4 7 14 16 18 19 22 23 19 16 22 27 26
4 3 5 9 7 6 3 4 7 3 1 4 4 5 6 13 13 12 14 15 15 15 16 18 21 20 20 20 19 18 14 9 1 9 15 17 18 20 21 22 22 21 17 16
4 5 5 8 8 5 2 3 4 4 3 5 5 6 6 16 12 10 10 12 12 14 15 17 21 22 23 22 19 16 14 12 8 1 6 13 17 18 18 21 23 26 25 24
5 3 4 9 6 6 4 2 2 3 2 4 2 2 7 16 13 7 9 10 11 11 13 15 18 22 24 24 23 18 13 11 11 8 2 5 9 14 17 20 21 23 25 27
8 5 5 9 10 11 7 5 2 1 3 5 4 7 10 13 10 7 7 10 11 10 11 12 16 20 22 23 23 20 15 11 9 9 7 2 3 8 13 17 20 22 23 24
4 3 4 5 5 7 6 5 5 5 4 7 3 6 14 13 9 8 7 9 11 13 11 12 14 18 22 24 23 21 17 14 12 11 9 7 1 3 7 12 17 20 22 22
10 9 10 12 13 15 14 12 10 11 7 7 17 19 7 14 11 7 8 8 10 11 14 13 15 17 20 21 23 22 20 16 11 10 11 9 7 2 2 7 12 16 19 21
12 15 16 18 21 21 21 20 19 22 19 15 17 22 8 10 9 6 7 8 9 10 13 15 15 16 18 19 22 23 21 15 13 11 10 8 7 5 4 2 5 11 15 17
19 17 18 21 21 22 26 23 24 26 26 25 17 14 8 7 7 6 6 8 9 9 10 14 16 16 17 19 21 22 21 15 12 11 10 10 10 9 7 5 5 6 10 14
19 18 13 11 11 14 22 11 18 17 15 10 10 8 9 8 7 7 7 8 8 7 8 11 13 14 16 18 20 21 22 19 13 12 13 14 14 14 12 8 5 7 8 11
22 19 15 11 12 3 7 7 6 8 12 13 11 6 9 9 6 7 7 7 9 8 8 9 9 11 12 15 17 20 20 19 17 17 18 18 18 17 14 11 6 5 5 8
25 23 14 7 10 19 22 21 18 13 12 9 6 8 7 7 7 7 6 6 7 9 8 8 6 7 9 11 12 15 18 20 19 16 17 17 16 17 16 16 12 6 5 7
30 30 26 15 5 5 5 6 5 8 21 8 5 5 6 5 6 5 3 4 5 7 8 7 5 4 6 6 9 9 10 11 13 13 14 14 14 15 15 16 16 12 9 8
33 35 35 31 15 13 27 22 22 11 8 6 5 4 6 4 3 4 3 2 4 6 6 7 6 6 5 5 5 5 5 6 8 8 10 11 12 12 11 12 12 14 15 14
26 22 23 27 15 16 17 21 19 11 10 8 7 6 7 6 3 5 5 5 6 6 6 5 5 6 6 5 5 6 5 3 3 4 5 7 8 8 9 9 9 9 9 10
31 34 25 22 12 10 3 6 8 6 8 8 9 9 10 11 9 6 9 9 8 8 7 6 5 6 6 7 7 8 9 8 7 5 3 3 2 3 4 5 6 7 4 2
36 35 39 35 32 28 26 26 24 23 18 17 16 15 15 15 14 13 14 13 12 11 10 8 9 10 11 11 12 12 11 12 12 11 9 7 7 5 4 3 3 1 2 4
34 33 41 43 32 31 28 26 21 24 23 20 21 20 19 20 18 17 15 14 15 12 11 11 11 12 15 17 17 19 17 15 16 15 15 15 14 12 11 10 8 8 7 7
42 41 43 43 29 25 23 19 20 21 24 24 25 19 20 21 23 21 16 17 18 17 16 14 15 16 16 16 19 18 19 18 19 19 19 19 20 20 18 17 16 15 14 13
Wind_Direction
336 1 7 28 31 39 33 359 3 344 339 335 331 333 326 329 327 327 326 328 330 325 322 317 313 310 306 297 288 286 278 265 247 213 165 133 14 227 199 202 202 204 204 203
314 318 354 23 23 19 32 2 345 348 343 343 333 332 351 349 338 330 328 326 326 327 326 319 317 312 311 304 293 287 270 264 238 213 194 193 183 222 215 198 202 205 205 205
313 317 331 3 11 4 23 4 354 330 342 345 338 334 1 1 353 347 338 332 329 322 317 312 313 309 306 309 307 290 259 258 247 236 208 209 226 224 226 202 208 206 207 213
334 317 316 332 343 352 9 0 352 327 326 353 346 302 311 352 351 346 344 339 340 334 333 328 326 319 308 308 309 303 261 244 242 236 222 218 231 221 218 205 203 215 211 214
306 302 304 320 329 348 345 357 349 328 316 333 351 329 342 346 353 348 350 354 352 350 343 336 329 324 317 311 305 304 280 242 236 235 229 222 212 213 205 218 226 219 220 214
317 308 295 308 313 336 353 348 3 334 329 18 343 356 312 348 344 351 353 4 360 355 352 351 347 343 339 328 315 303 276 238 232 240 237 222 222 217 220 214 210 204 208 234
306 288 283 288 316 322 2 350 13 353 2 218 309 315 320 339 343 349 355 3 11 3 2 1 1 352 351 5 4 354 319 234 221 231 236 228 229 225 227 227 215 206 202 194
275 293 297 295 318 328 7 43 82 212 296 287 307 283 342 342 348 349 356 360 9 10 3 0 3 7 6 14 21 20 17 339 221 223 230 229 227 230 227 222 224 210 207 205
292 266 299 283 300 323 320 38 37 110 279 304 292 312 15 354 350 352 353 354 0 13 13 6 7 14 16 16 19 25 24 22 322 224 218 219 224 227 230 224 222 219 212 221
277 288 296 280 286 290 348 355 39 26 48 314 290 292 339 358 351 353 355 355 359 10 20 17 11 14 18 17 15 18 24 25 25 331 233 224 217 217 225 228 225 223 222 222
287 280 282 290 277 271 272 225 69 62 81 159 291 274 347 2 346 354 354 356 5 12 16 20 18 16 14 10 9 9 14 23 25 21 343 235 225 223 220 224 224 226 226 227
274 278 279 283 283 268 251 239 250 52 205 226 230 284 337 360 348 334 349 348 355 11 12 14 16 16 13 11 6 3 7 11 23 22 24 351 245 227 222 226 223 219 222 225
257 246 304 296 265 255 245 255 263 275 260 234 168 300 334 344 339 320 335 343 348 355 5 7 9 14 16 15 14 11 8 4 11 21 20 24 358 231 233 223 221 219 218 220
271 261 257 254 277 287 275 281 268 256 246 248 268 304 306 317 330 307 312 333 344 350 356 2 6 12 17 19 18 12 6 9 13 19 14 15 21 50 211 221 216 213 213 213
270 270 276 279 278 278 278 280 273 268 274 259 290 295 306 275 294 292 299 309 330 341 347 354 359 9 15 17 19 17 11 8 8 14 24 30 29 42 73 101 208 211 209 209
261 266 280 285 288 281 276 270 265 264 268 277 285 303 295 312 317 319 310 307 312 326 337 345 348 1 14 17 21 27 22 19 19 25 36 45 53 66 74 90 120 167 196 201
256 260 273 281 285 293 291 276 249 262 269 261 288 286 300 301 308 310 314 321 320 317 323 337 347 350 8 18 24 32 36 37 48 55 62 68 65 60 62 74 103 138 169 190
250 254 255 265 285 290 268 253 244 269 274 272 290 266 278 290 283 285 308 323 335 325 314 325 342 347 1 18 31 40 44 47 51 57 65 61 58 58 53 57 78 117 164 177
238 243 238 237 221 274 269 271 273 275 302 277 250 256 265 270 276 286 295 317 338 345 341 326 332 344 351 8 28 46 60 64 64 54 46 44 45 46 54 56 56 72 149 168
228 233 232 227 223 226 260 244 248 294 301 276 264 259 222 240 282 275 284 317 340 350 351 348 326 331 344 349 10 31 45 53 60 57 47 42 40 39 45 57 63 70 86 124
214 225 228 230 236 254 258 258 269 269 280 278 278 255 217 256 283 283 291 333 356 350 346 353 342 325 329 331 332 357 27 42 56 58 60 58 46 38 39 39 52 68 82 92
227 219 222 222 221 256 261 251 241 269 266 283 287 262 240 253 288 298 283 308 320 321 330 338 346 337 327 311 293 293 310 334 11 43 51 55 53 57 46 36 36 50 73 78
223 232 237 224 243 240 217 202 274 291 272 283 282 268 259 265 285 308 289 282 295 299 284 290 310 323 325 316 299 281 276 277 281 287 313 333 21 46 44 43 38 23 26 65
242 242 241 246 251 254 255 260 269 282 279 271 281 277 272 267 275 293 295 281 288 292 283 273 270 278 287 296 302 294 283 277 269 269 271 271 280 279 281 291 298 285 320 326
257 248 248 253 259 264 266 265 281 277 270 256 265 274 273 271 272 287 287 279 279 278 287 292 288 284 284 285 282 287 285 278 276 269 264 265 265 263 262 260 258 264 266 255
251 252 249 255 275 276 264 266 271 267 259 251 264 257 267 270 279 284 281 277 273 275 275 280 287 288 286 290 292 291 289 283 276 273 268 262 259 261 261 261 261 258 256 255
Height
3150 3150 3147 3145 3143 3140 3137 3139 3137 3135 3133 3132 3129 3125 3122 3120 3118 3116 3113 3111 3108 3106 3102 3099 3096 3094 3092 3090 3088 3088 3088 3088 3087 3087 3084 3087 3089 3092 3097 3104 3109 3114 3119 3124
3151 3149 3147 3145 3143 3141 3138 3138 3137 3135 3133 3131 3128 3124 3122 3120 3118 3115 3113 3109 3107 3104 3101 3097 3094 3091 3089 3088 3085 3084 3084 3084 3085 3083 3085 3086 3088 3091 3093 3097 3103 3110 3115 3119
3149 3149 3147 3145 3142 3140 3138 3137 3135 3136 3133 3129 3127 3123 3122 3121 3118 3115 3111 3108 3105 3102 3100 3096 3093 3090 3087 3085 3082 3081 3080 3080 3080 3078 3082 3085 3086 3087 3088 3093 3099 3105 3110 3116
3147 3147 3146 3145 3141 3140 3137 3134 3133 3131 3131 3129 3127 3127 3122 3120 3118 3114 3110 3107 3103 3100 3097 3094 3091 3088 3085 3082 3079 3077 3076 3075 3077 3078 3081 3082 3083 3085 3087 3091 3096 3100 3104 3110
3147 3146 3146 3145 3142 3139 3138 3133 3130 3129 3129 3128 3129 3129 3122 3120 3117 3113 3109 3106 3102 3099 3096 3092 3088 3085 3083 3079 3075 3073 3071 3071 3073 3074 3077 3078 3080 3085 3085 3088 3091 3097 3099 3103
3144 3144 3145 3143 3141 3138 3135 3132 3129 3129 3128 3129 3130 3131 3122 3120 3116 3113 3108 3105 3102 3098 3094 3091 3086 3081 3078 3074 3070 3067 3067 3067 3068 3070 3072 3074 3078 3082 3083 3085 3088 3092 3096 3099
3143 3142 3143 3142 3141 3139 3135 3132 3130 3134 3133 3133 3128 3127 3123 3122 3118 3113 3109 3105 3101 3097 3094 3090 3087 3081 3075 3071 3066 3063 3062 3062 3063 3066 3068 3070 3075 3078 3081 3083 3085 3088 3092 3095
3142 3140 3142 3142 3141 3139 3136 3134 3132 3144 3142 3132 3127 3125 3122 3121 3119 3115 3109 3105 3102 3098 3094 3090 3086 3081 3074 3071 3066 3062 3060 3060 3060 3062 3065 3068 3071 3074 3077 3080 3082 3085 3088 3092
3140 3139 3138 3140 3139 3139 3136 3135 3134 3133 3135 3135 3126 3123 3120 3117 3117 3115 3111 3106 3101 3098 3095 3091 3088 3083 3076 3071 3068 3065 3062 3061 3060 3060 3063 3065 3068 3070 3073 3074 3079 3082 3085 3088
3140 3138 3137 3139 3138 3138 3136 3136 3133 3132 3139 3140 3123 3121 3119 3117 3114 3113 3112 3107 3102 3098 3096 3092 3088 3084 3079 3074 3069 3066 3064 3062 3060 3061 3061 3061 3063 3065 3067 3070 3075 3078 3081 3085
3138 3138 3138 3138 3137 3136 3135 3133 3132 3134 3136 3138 3139 3118 3117 3114 3114 3112 3112 3109 3104 3099 3095 3092 3088 3084 3080 3076 3072 3067 3064 3062 3061 3059 3059 3059 3059 3060 3062 3067 3070 3074 3079 3082
3136 3135 3134 3135 3134 3134 3132 3131 3131 3130 3134 3133 3133 3119 3114 3112 3111 3111 3109 3109 3106 3100 3095 3092 3089 3084 3079 3075 3071 3067 3065 3063 3062 3060 3057 3056 3056 3058 3060 3064 3066 3069 3073 3077
3134 3133 3133 3132 3135 3132 3129 3128 3128 3128 3128 3127 3129 3118 3113 3111 3109 3109 3109 3108 3106 3104 3098 3093 3089 3086 3081 3075 3072 3068 3065 3062 3059 3058 3058 3057 3057 3058 3059 3060 3064 3066 3069 3073
3130 3130 3131 3130 3129 3129 3126 3125 3124 3124 3123 3121 3116 3113 3113 3109 3108 3109 3107 3106 3104 3103 3100 3096 3091 3087 3082 3077 3073 3069 3065 3063 3060 3058 3056 3057 3058 3058 3059 3060 3062 3063 3066 3069
3127 3125 3125 3126 3125 3123 3121 3120 3119 3116 3117 3115 3110 3108 3109 3107 3105 3105 3105 3104 3103 3102 3100 3097 3092 3089 3084 3080 3074 3070 3065 3063 3061 3059 3058 3058 3057 3057 3058 3058 3060 3062 3064 3067
3122 3121 3120 3119 3119 3117 3113 3113 3110 3109 3107 3106 3105 3104 3104 3104 3103 3102 3102 3102 3100 3099 3098 3097 3094 3090 3086 3081 3077 3071 3068 3065 3064 3062 3059 3058 3058 3058 3058 3058 3060 3059 3063 3066
3118 3118 3117 3115 3115 3113 3107 3099 3100 3101 3101 3102 3101 3101 3100 3101 3100 3100 3099 3099 3099 3097 3096 3095 3094 3091 3087 3084 3079 3075 3071 3069 3067 3066 3064 3062 3061 3060 3059 3059 3060 3059 3062 3065
3111 3113 3114 3112 3113 3111 3098 3097 3097 3097 3097 3097 3097 3097 3097 3098 3098 3097 3097 3097 3096 3096 3094 3093 3093 3091 3088 3085 3081 3077 3074 3073 3072 3071 3070 3069 3067 3064 3063 3061 3059 3060 3063 3066
3105 3107 3109 3109 3105 3100 3095 3094 3094 3093 3093 3091 3092 3093 3094 3095 3096 3095 3095 3094 3094 3094 3093 3092 3092 3091 3090 3088 3084 3081 3078 3076 3075 3075 3075 3074 3072 3070 3066 3063 3061 3061 3062 3064
3097 3099 3102 3102 3101 3098 3092 3090 3091 3091 3087 3088 3088 3089 3090 3092 3092 3093 3092 3092 3092 3092 3091 3091 3090 3089 3089 3089 3087 3085 3083 3081 3078 3078 3077 3076 3076 3074 3072 3069 3067 3065 3064 3064
3086 3090 3090 3093 3094 3087 3089 3087 3087 3089 3088 3084 3085 3086 3087 3089 3091 3091 3090 3090 3089 3090 3089 3090 3089 3089 3088 3087 3087 3086 3083 3082 3081 3080 3079 3078 3079 3079 3077 3076 3074 3071 3069 3068
3079 3080 3081 3085 3089 3083 3078 3080 3082 3082 3080 3081 3082 3083 3084 3085 3086 3088 3088 3088 3088 3088 3087 3087 3087 3087 3086 3086 3085 3086 3085 3083 3083 3081 3081 3081 3080 3079 3079 3080 3080 3078 3076 3074
3071 3070 3070 3072 3071 3073 3074 3076 3077 3078 3078 3079 3080 3081 3081 3082 3082 3084 3085 3085 3085 3085 3084 3085 3085 3084 3084 3085 3084 3083 3083 3082 3082 3082 3081 3082 3080 3080 3080 3079 3080 3081 3081 3080
3056 3062 3059 3064 3066 3068 3071 3072 3074 3075 3076 3076 3076 3076 3077 3078 3078 3079 3080 3080 3082 3081 3080 3080 3081 3081 3082 3082 3081 3081 3081 3080 3080 3080 3079 3079 3080 3081 3080 3080 3080 3079 3081 3082
3050 3053 3051 3051 3057 3061 3062 3065 3068 3069 3070 3070 3071 3072 3073 3073 3074 3074 3075 3075 3076 3077 3077 3077 3077 3077 3077 3076 3077 3076 3076 3077 3077 3077 3076 3076 3076 3077 3078 3078 3078 3078 3079 3078
3034 3039 3040 3040 3052 3054 3055 3058 3058 3059 3060 3062 3064 3066 3067 3067 3068 3068 3069 3070 3070 3071 3072 3072 3072 3072 3072 3072 3071 3072 3070 3070 3071 3071 3071 3071 3071 3073 3073 3074 3075 3076 3076 3076